Location: El Gavilán
(32.5178°N, 116.7422°W)
Time: 23:58:18
(UTC+00:00)

BlueWalker 3 - Pass Details

Date: 07 August 2024
Orbit: 475 x 487 km, 53.2° (Epoch: 16 September)

Event Time Altitude Azimuth Distance (km) Brightness Sun altitude
Exits shadow 11:20:15 12° 316° (NW) 1,564 4.3 -20.5°
Maximum altitude 11:20:59 12° 329° (NNW) 1,534 4.4 -20.4°
Drops below altitude 10° 11:22:39 10° 355° (N) 1,683 5.0 -20.1°
Sets 11:25:59 0° 26° (NNE) 2,569 6.6 -19.5°
